CDT,Max TemperatureF,Mean TemperatureF,Min TemperatureF,Max Dew PointF,MeanDew PointF,Min DewpointF,Max Humidity, Mean Humidity, Min Humidity, Max Sea Level PressureIn, Mean Sea Level PressureIn, Min Sea Level PressureIn, Max VisibilityMiles, Mean VisibilityMiles, Min VisibilityMiles, Max Wind SpeedMPH, Mean Wind SpeedMPH, Max Gust SpeedMPH,PrecipitationIn, CloudCover, Events, WindDirDegrees
2012-10-1,69,56,44,48,35,25,63,41,20,30.07,30.01,29.91,10,10,10,25,12,32,0.00,1,Rain,331
2012-10-2,73,54,35,34,26,21,75,38,14,30.00,29.87,29.76,10,9,2,16,6,23,0.00,0,,181
2012-10-3,78,60,42,41,29,23,62,36,14,29.85,29.79,29.71,10,10,4,15,6,21,0.00,0,,107
2012-10-4,51,44,37,41,33,25,87,69,49,30.23,30.06,29.73,10,9,3,31,23,45,0.00,7,Rain,307
2012-10-5,44,37,30,28,25,21,80,61,43,30.26,30.23,30.21,10,10,10,22,14,31,0.00,4,,303
2012-10-6,42,36,30,28,24,19,81,63,42,30.37,30.30,30.24,10,10,10,17,12,25,0.00,5,,335
2012-10-7,57,42,26,23,18,16,74,45,20,30.23,30.00,29.80,10,10,10,15,6,22,0.00,0,,212
2012-10-8,62,50,37,37,30,18,62,46,36,29.80,29.68,29.57,10,10,10,22,7,33,0.00,4,,238
2012-10-9,48,44,39,36,26,19,66,51,39,30.04,29.88,29.74,10,10,10,24,12,33,0.00,7,,303
2012-10-10,57,44,30,30,25,19,87,52,25,30.08,29.97,29.76,10,10,10,14,6,21,0.00,3,,247
2012-10-11,57,42,28,34,26,12,93,59,25,30.40,30.15,29.80,10,10,10,20,12,26,0.00,1,,334
2012-10-12,55,37,19,21,16,10,86,47,17,30.41,30.21,29.87,10,10,5,21,6,29,0.00,2,,158
2012-10-13,64,52,41,45,39,19,81,64,26,29.86,29.73,29.65,10,10,7,17,7,25,0.00,1,,157
2012-10-14,57,47,37,34,32,30,75,58,38,29.95,29.88,29.79,10,10,10,21,11,25,0.00,0,,328
2012-10-15,68,49,30,37,33,27,87,57,28,29.94,29.81,29.61,10,10,7,17,5,23,0.00,1,,163
2012-10-16,73,62,51,46,42,37,67,48,33,29.62,29.47,29.28,10,10,10,14,4,,0.00,1,Rain,281
2012-10-17,55,50,44,52,42,37,94,76,63,29.32,29.24,29.15,10,10,7,23,11,31,0.36,7,Rain,303
2012-10-18,46,44,41,45,40,36,93,87,71,29.51,29.31,29.18,10,7,1,31,19,41,0.51,8,Rain,319
2012-10-19,42,40,39,39,38,37,93,88,81,29.76,29.69,29.51,10,8,2,31,21,41,0.10,8,Rain,335
2012-10-20,53,44,35,46,40,34,100,88,72,29.77,29.72,29.66,10,8,0,18,6,21,0.00,4,Fog,152
2012-10-21,53,48,42,46,42,39,93,84,72,29.98,29.79,29.66,10,10,7,15,10,,0.00,2,,38
2012-10-22,60,51,42,46,44,39,93,79,59,30.00,29.94,29.83,10,9,3,16,12,20,0.00,6,Rain,50
2012-10-23,59,54,50,55,51,46,100,90,82,29.83,29.72,29.64,10,4,0,9,6,,0.00,8,Fog,116
2012-10-24,53,44,35,50,38,32,93,79,62,29.96,29.90,29.80,10,10,7,23,12,31,0.00,5,Rain,341
2012-10-25,37,34,32,30,27,21,93,71,52,30.21,30.03,29.91,10,8,1,23,17,34,0.03,7,Rain-Snow,321
2012-10-26,37,34,32,25,21,19,70,56,48,30.36,30.32,30.22,10,10,2,22,12,30,0.00,8,,293
2012-10-27,42,32,23,30,23,18,81,66,36,30.34,30.28,30.22,10,10,5,10,5,,0.00,3,Snow,193
2012-10-28,46,40,33,32,30,28,87,71,53,30.27,30.21,30.16,10,10,7,12,6,16,0.00,5,Snow,142
2012-10-29,53,44,35,30,29,28,81,63,41,30.16,30.14,30.10,10,10,10,16,13,23,0.00,3,,140
2012-10-30,44,38,33,28,27,23,81,63,43,30.16,30.13,30.06,10,10,10,13,9,18,0.00,5,Rain,132
2012-10-31,60,44,28,37,31,27,93,66,36,30.08,30.00,29.92,10,10,7,18,2,,0.00,2,,176